Location: Unspecified
(0.0000°N, 0.0000°E)
Time: 16:35:21
(UTC+00:00)

Vanguard 3 - Pass Details

Date: 08 December 2017
Orbit: 508 x 3264 km, 33.3° (Epoch: 20 July)

Event Time Altitude Azimuth Distance (km) Brightness Sun altitude
Exits shadow 02:52:10 - 242° (WSW) 6,715 11.6 -40.6°
Reaches altitude 10° 02:57:05 10° 231° (SW) 6,184 11.4 -39.6°
Maximum altitude 03:08:55 18° 194° (SSW) 5,399 11.4 -37.0°
Drops below altitude 10° 03:19:47 10° 156° (SSE) 5,592 11.9 -34.6°
Sets 03:26:01 0° 138° (SE) 6,147 12.6 -33.2°
